Location: Home
(42.5358°N, 72.7383°W)
Time: 06:51:37
(UTC-05:00)

Explorer 11/Cluster Stage 4 - Pass Details

Date: 04 December 2021
Orbit: 467 x 1255 km, 28.8° (Epoch: 25 January)

Event Time Altitude Azimuth Distance (km) Brightness Sun altitude
Rises 05:13:48 0° 255° (WSW) 3,880 - -19.7°
Reaches altitude 10° 05:17:02 10° 242° (WSW) 3,028 - -19.2°
Exits shadow 05:18:07 14° 236° (SW) 2,789 9.0 -19.0°
Maximum altitude 05:22:52 24° 193° (SSW) 2,284 8.9 -18.1°
Drops below altitude 10° 05:29:03 10° 144° (SE) 3,220 10.4 -17.0°
Sets 05:32:37 0° 131° (SE) 4,180 11.5 -16.4°
